Date,TemperatureHighF,TemperatureAvgF,TemperatureLowF,DewpointHighF,DewpointAvgF,DewpointLowF,HumidityHigh,HumidityAvg,HumidityLow,PressureMaxIn,PressureMinIn,WindSpeedMaxMPH,WindSpeedAvgMPH,GustSpeedMaxMPH,PrecipitationSumIn
2013-2-1,20.3,13.5,5.6,11.0,5.2,0.0,80,70,58,30.51,30.22,12,3,17,0.03
2013-2-2,32.4,26.6,17.3,28.0,21.5,11.0,92,81,63,30.35,30.05,8,3,17,0.05
2013-2-3,29.3,23.6,13.9,24.0,19.3,12.0,92,83,68,30.18,30.01,9,2,17,0.00
2013-2-4,40.9,29.4,12.0,38.0,25.2,10.0,95,85,57,30.16,29.84,9,2,19,0.18
2013-2-5,46.7,35.8,26.6,37.0,31.6,25.0,95,85,67,30.06,29.89,8,2,13,0.00
2013-2-6,45.8,35.0,29.9,33.0,29.3,27.0,93,80,61,30.27,30.07,8,1,11,0.00
2013-2-7,65.8,46.9,30.8,48.0,36.6,29.0,92,71,36,30.17,29.81,8,2,13,0.13
2013-2-8,50.1,36.2,32.7,48.0,32.0,27.0,94,85,79,30.36,29.84,8,3,16,0.18
2013-2-9,49.8,35.6,23.6,31.0,26.5,22.0,94,71,45,30.41,30.16,7,2,9,0.00
2013-2-10,53.5,46.0,37.6,50.0,38.3,25.0,92,75,56,30.16,29.76,16,5,29,0.23
2013-2-11,54.6,45.5,29.8,51.0,34.6,26.0,89,67,51,30.10,29.76,17,7,28,0.00
2013-2-12,51.4,36.9,24.0,32.0,27.9,22.0,95,73,42,30.17,29.91,6,1,11,0.00
2013-2-13,42.2,35.4,30.5,33.0,30.6,28.0,93,83,65,29.92,29.80,7,2,11,0.21
2013-2-14,54.5,42.6,34.3,42.0,35.4,31.0,91,77,53,30.02,29.87,10,4,15,0.00
2013-2-15,41.1,33.0,23.0,33.0,25.4,18.0,94,75,48,30.21,30.01,10,2,20,0.00
2013-2-16,34.0,25.4,19.8,19.0,15.6,11.0,91,68,44,30.20,30.13,11,2,23,0.00
2013-2-17,40.2,25.7,12.9,20.0,15.2,10.0,92,67,37,30.28,30.17,8,1,11,0.00
2013-2-18,61.3,45.4,30.6,44.0,30.9,17.0,89,59,36,30.17,29.69,19,7,29,0.42
2013-2-19,46.7,32.0,23.6,44.0,24.3,14.0,92,74,61,30.22,29.68,17,7,28,0.13
2013-2-20,30.3,24.0,16.8,16.0,13.7,10.0,80,65,53,30.37,30.22,11,2,13,0.00
2013-2-21,35.9,26.1,15.9,30.0,20.5,13.0,92,80,57,30.35,29.98,12,4,18,0.03
2013-2-22,41.6,37.0,31.8,36.0,33.8,28.0,97,88,78,30.03,29.85,14,3,17,0.27
2013-2-23,44.2,33.6,23.8,28.0,24.5,21.0,92,71,48,30.04,29.94,7,2,12,0.00
2013-2-24,51.7,32.3,18.8,30.0,23.8,17.0,94,74,42,30.17,30.00,4,0,8,0.00
2013-2-25,51.6,37.2,24.0,30.0,25.7,22.0,92,67,39,30.13,29.78,17,4,21,0.00
2013-2-26,47.2,42.2,38.6,45.0,37.7,26.0,96,85,55,29.77,29.37,13,4,23,0.86
2013-2-27,39.7,35.6,32.8,37.0,32.7,30.0,94,89,78,29.79,29.55,14,6,20,0.04
2013-2-28,36.9,34.0,31.8,34.0,31.8,29.0,94,91,87,30.02,29.78,12,4,15,0.04